Location: Keppel Henge
(44.7900°N, 80.9447°W)
Time: 11:57:27
(UTC-04:00)

ISS - Pass Details

Date: 08 October 2017
Orbit: 401 x 408 km, 51.6° (Epoch: 22 October)

Event Time Altitude Azimuth Distance (km) Brightness Sun altitude
Rises 21:25:07 0° 300° (WNW) 2,330 1.3 -27.8°
Reaches altitude 10° 21:27:13 10° 300° (WNW) 1,468 -0.1 -28.1°
Enters shadow 21:28:11 18° 300° (WNW) 1,077 -0.9 -28.3°
